| time (UTC) | temp F | wind direction | speed MPH | gust MPH | rain 1hr in | rain 24hr in | rain mn in | humidity % | barometer mb |
| 20260503001524 | 50 | 360 | 2.0 | 4.0 | 0.00 | 0.00 | 0.00 | 42 | 1012.5 |
| 20260503000040 | 52 | 13 | 0.0 | 3.0 | 0.00 | 0.00 | 0.00 | 38 | 1012.6 |
| 20260502234522 | 53 | 20 | 2.0 | 6.0 | 0.00 | 0.00 | 0.00 | 35 | 1012.7 |
| 20260502233021 | 54 | 5 | 0.0 | 4.0 | 0.00 | 0.00 | 0.00 | 37 | 1012.8 |
| 20260502231520 | 54 | 30 | 1.0 | 4.0 | 0.00 | 0.00 | 0.00 | 36 | 1012.9 |
| 20260502230018 | 55 | 38 | 2.0 | 6.0 | 0.00 | 0.00 | 0.00 | 35 | 1013.0 |
| 20260502224520 | 54 | 26 | 2.0 | 6.0 | 0.00 | 0.00 | 0.00 | 35 | 1013.1 |
| 20260502223026 | 55 | 44 | 2.0 | 5.0 | 0.00 | 0.00 | 0.00 | 35 | 1013.3 |
| 20260502221518 | 54 | 360 | 2.0 | 5.0 | 0.00 | 0.00 | 0.00 | 36 | 1013.4 |
| 20260502220013 | 53 | 31 | 1.0 | 5.0 | 0.00 | 0.00 | 0.00 | 36 | 1013.6 |
| 20260502214512 | 54 | 360 | 3.0 | 6.0 | 0.00 | 0.00 | 0.00 | 34 | 1013.7 |
| 20260502213010 | 54 | 32 | 2.0 | 8.0 | 0.00 | 0.00 | 0.00 | 36 | 1013.8 |
| 20260502211509 | 57 | 84 | 3.0 | 6.0 | 0.00 | 0.00 | 0.00 | 33 | 1013.9 |
| 20260502210007 | 56 | 355 | 3.0 | 8.0 | 0.00 | 0.00 | 0.00 | 37 | 1014.0 |
| 20260502204506 | 55 | 324 | 3.0 | 5.0 | 0.00 | 0.00 | 0.00 | 30 | 1014.3 |
| 20260502203004 | 55 | 330 | 4.0 | 11.0 | 0.00 | 0.00 | 0.00 | 31 | 1014.3 |
| 20260502201505 | 57 | 284 | 3.0 | 8.0 | 0.00 | 0.00 | 0.00 | 31 | 1014.6 |
| 20260502200130 | 57 | 5 | 2.0 | 8.0 | 0.00 | 0.00 | 0.00 | 30 | 1014.7 |
| 20260502194604 | 56 | 329 | 7.0 | 10.0 | 0.00 | 0.00 | 0.00 | 31 | 1014.9 |
| 20260502193057 | 57 | 223 | 4.0 | 8.0 | 0.00 | 0.00 | 0.00 | 34 | 1015.2 |
| 20260502191602 | 57 | 190 | 4.0 | 9.0 | 0.00 | 0.00 | 0.00 | 33 | 1015.4 |
| 20260502190057 | 56 | 340 | 3.0 | 10.0 | 0.00 | 0.00 | 0.00 | 33 | 1015.6 |
| 20260502184550 | 56 | 327 | 1.0 | 10.0 | 0.00 | 0.00 | 0.00 | 31 | 1015.8 |
| 20260502183050 | 55 | 225 | 2.0 | 9.0 | 0.00 | 0.00 | 0.00 | 36 | 1016.0 |
| 20260502181546 | 55 | 301 | 4.0 | 9.0 | 0.00 | 0.00 | 0.00 | 33 | 1016.0 |
| 20260502163028 | 53 | 184 | 2.0 | 8.0 | 0.00 | 0.00 | 0.00 | 44 | 1017.3 |
| 20260502161524 | 51 | 140 | 1.0 | 6.0 | 0.00 | 0.00 | 0.00 | 44 | 1017.5 |
| 20260502151538 | 50 | 279 | 2.0 | 5.0 | 0.00 | 0.00 | 0.00 | 45 | 1018.2 |
| 20260502123039 | 33 | 126 | 1.0 | 3.0 | 0.00 | 0.00 | 0.00 | 79 | 1019.9 |
| 20260502121536 | 31 | 184 | 0.0 | 0.0 | 0.00 | 0.00 | 0.00 | 85 | 1020.0 |
| 20260502114527 | 27 | 254 | 0.0 | 0.0 | 0.00 | 0.00 | 0.00 | 91 | 1020.0 |
| 20260502113034 | 25 | 254 | 0.0 | 0.0 | 0.00 | 0.00 | 0.00 | 92 | 1019.9 |
| 20260502111525 | 25 | 254 | 0.0 | 0.0 | 0.00 | 0.00 | 0.00 | 92 | 1019.9 |
| 20260502110033 | 24 | 254 | 0.0 | 0.0 | 0.00 | 0.00 | 0.00 | 92 | 1019.9 |
| 20260502104525 | 24 | 254 | 0.0 | 0.0 | 0.00 | 0.00 | 0.00 | 92 | 1019.8 |
| 20260502103024 | 24 | 254 | 0.0 | 0.0 | 0.00 | 0.00 | 0.00 | 92 | 1019.9 |
| 20260502101525 | 24 | 254 | 0.0 | 0.0 | 0.00 | 0.00 | 0.00 | 92 | 1019.8 |
| 20260502091521 | 24 | 254 | 0.0 | 0.0 | 0.00 | 0.00 | 0.00 | 91 | 1019.8 |
| 20260502090120 | 24 | 254 | 0.0 | 0.0 | 0.00 | 0.00 | 0.00 | 91 | 1019.7 |
| 20260502071510 | 25 | 254 | 0.0 | 0.0 | 0.00 | 0.00 | 0.00 | 90 | 1020.0 |
| 20260502070024 | 25 | 254 | 0.0 | 0.0 | 0.00 | 0.00 | 0.00 | 90 | 1020.1 |
| 20260502064508 | 25 | 254 | 0.0 | 0.0 | 0.00 | 0.00 | 0.00 | 89 | 1020.1 |
| 20260502063015 | 26 | 254 | 0.0 | 0.0 | 0.00 | 0.00 | 0.00 | 89 | 1020.3 |
| 20260502061505 | 26 | 254 | 0.0 | 0.0 | 0.00 | 0.00 | 0.00 | 89 | 1020.3 |
| 20260502060003 | 26 | 254 | 0.0 | 0.0 | 0.00 | 0.00 | 0.00 | 88 | 1020.4 |
| 20260502054501 | 26 | 254 | 0.0 | 0.0 | 0.00 | 0.00 | 0.00 | 88 | 1020.4 |
| 20260502053059 | 26 | 254 | 0.0 | 0.0 | 0.00 | 0.00 | 0.00 | 88 | 1020.6 |
| 20260502051558 | 27 | 254 | 0.0 | 0.0 | 0.00 | 0.00 | 0.00 | 87 | 1020.6 |
| 20260502050056 | 27 | 254 | 0.0 | 0.0 | 0.00 | 0.00 | 0.00 | 87 | 1020.6 |
| 20260502044558 | 27 | 254 | 0.0 | 0.0 | 0.00 | 0.00 | 0.00 | 86 | 1020.7 |
| 20260502043054 | 27 | 254 | 0.0 | 0.0 | 0.00 | 0.00 | 0.00 | 86 | 1020.7 |
| 20260502041559 | 28 | 254 | 0.0 | 0.0 | 0.00 | 0.00 | 0.00 | 85 | 1020.7 |
| 20260502040049 | 28 | 254 | 0.0 | 0.0 | 0.00 | 0.00 | 0.00 | 84 | 1020.6 |
| 20260502034548 | 28 | 254 | 0.0 | 0.0 | 0.00 | 0.00 | 0.00 | 83 | 1020.6 |
| 20260502033048 | 29 | 250 | 0.0 | 0.0 | 0.00 | 0.00 | 0.00 | 83 | 1020.6 |
| 20260502031547 | 29 | 250 | 0.0 | 2.0 | 0.00 | 0.00 | 0.00 | 82 | 1020.7 |
| 20260502030043 | 29 | 303 | 0.0 | 0.0 | 0.00 | 0.00 | 0.00 | 82 | 1020.7 |
| 20260502024551 | 30 | 303 | 0.0 | 0.0 | 0.00 | 0.00 | 0.00 | 81 | 1020.7 |
| 20260502023059 | 30 | 303 | 0.0 | 0.0 | 0.00 | 0.00 | 0.00 | 81 | 1020.7 |
| 20260502021536 | 31 | 303 | 0.0 | 0.0 | 0.00 | 0.00 | 0.00 | 80 | 1020.7 |
| 20260502020033 | 32 | 303 | 0.0 | 0.0 | 0.00 | 0.00 | 0.00 | 75 | 1020.5 |
| 20260502014534 | 34 | 309 | 0.0 | 0.0 | 0.00 | 0.00 | 0.00 | 72 | 1020.5 |
| 20260502013032 | 35 | 349 | 0.0 | 1.0 | 0.00 | 0.00 | 0.00 | 68 | 1020.4 |
| 20260502011530 | 36 | 349 | 1.0 | 3.0 | 0.00 | 0.00 | 0.00 | 65 | 1020.4 |
| 20260502010033 | 38 | 340 | 1.0 | 3.0 | 0.00 | 0.00 | 0.00 | 61 | 1020.3 |
| 20260502004531 | 39 | 355 | 1.0 | 3.0 | 0.00 | 0.00 | 0.00 | 58 | 1020.3 |
| 20260502003026 | 40 | 5 | 0.0 | 3.0 | 0.00 | 0.00 | 0.00 | 57 | 1020.2 |